Terminal Aerodrome Forecast
Issued by NWS Riverton, WY

Home | Current Version | Previous Version | Text Only | Print | Product List | Glossary On
Versions: 1 2 3 4 5 6 7 8 9 10 11 12 13
086
FTUS45 KRIW 241122
TAFRIW
TAF
KRIW 241122Z 2412/2512 21006KT P6SM SKC
     FM241830 26015G25KT P6SM SCT080
     FM242000 26018G30KT P6SM SCT080
     FM250000 28015G25KT P6SM VCSH SCT060 BKN080
     FM250400 30014KT P6SM SCT080
     FM250900 36008KT P6SM SCT080=

USA.gov is the U.S. government's official web portal to all federal, state and local government web resources and services.